TimeEST,TemperatureF,Dew PointF,Humidity,Sea Level PressureIn,VisibilityMPH,Wind Direction,Wind SpeedMPH,Gust SpeedMPH,PrecipitationIn,Events,Conditions,WindDirDegrees,DateUTC
12:53 AM,-9999,-9999,N/A,30.17,10.0,ENE,8.1,-,N/A,,Mostly Cloudy,70,2012-11-12 05:53:00
1:53 AM,-9999,-9999,N/A,30.14,10.0,ENE,6.9,-,0.00,,Partly Cloudy,60,2012-11-12 06:53:00
2:53 AM,-9999,-9999,N/A,30.10,10.0,ENE,4.6,-,N/A,,Partly Cloudy,60,2012-11-12 07:53:00
3:53 AM,-9999,-9999,N/A,30.10,8.0,NE,5.8,-,0.02,Rain,Rain,50,2012-11-12 08:53:00
4:53 AM,-9999,-9999,N/A,30.11,10.0,NE,5.8,-,0.00,,Clear,50,2012-11-12 09:53:00
5:53 AM,-9999,-9999,N/A,30.12,10.0,NE,6.9,-,N/A,,Mostly Cloudy,40,2012-11-12 10:53:00
6:53 AM,-9999,-9999,N/A,30.13,10.0,NE,9.2,-,N/A,,Clear,40,2012-11-12 11:53:00
7:53 AM,-9999,-9999,N/A,30.14,10.0,NE,6.9,-,N/A,,Partly Cloudy,50,2012-11-12 12:53:00
8:53 AM,-9999,-9999,N/A,30.16,10.0,Variable,5.8,-,N/A,,Partly Cloudy,0,2012-11-12 13:53:00
9:53 AM,-9999,-9999,N/A,30.16,10.0,ENE,10.4,-,0.00,,Partly Cloudy,70,2012-11-12 14:53:00
10:53 AM,-9999,-9999,N/A,30.16,10.0,East,12.7,-,N/A,,Clear,80,2012-11-12 15:53:00
11:53 AM,-9999,-9999,N/A,30.15,10.0,ENE,12.7,-,0.00,,Mostly Cloudy,70,2012-11-12 16:53:00
12:53 PM,-9999,-9999,N/A,30.13,10.0,East,13.8,-,0.00,,Partly Cloudy,80,2012-11-12 17:53:00
1:53 PM,-9999,-9999,N/A,30.10,10.0,East,16.1,-,N/A,,Clear,90,2012-11-12 18:53:00
2:53 PM,-9999,-9999,N/A,30.09,10.0,East,16.1,-,N/A,,Clear,80,2012-11-12 19:53:00
3:53 PM,-9999,-9999,N/A,30.09,10.0,East,13.8,20.7,N/A,,Clear,80,2012-11-12 20:53:00
4:53 PM,-9999,-9999,N/A,30.09,10.0,ENE,12.7,-,N/A,,Partly Cloudy,60,2012-11-12 21:53:00
5:53 PM,-9999,-9999,N/A,30.10,10.0,NE,9.2,-,N/A,,Clear,50,2012-11-12 22:53:00
6:53 PM,-9999,-9999,N/A,30.11,10.0,ENE,8.1,-,N/A,,Clear,60,2012-11-12 23:53:00
7:53 PM,-9999,-9999,N/A,30.13,10.0,NE,8.1,-,N/A,,Clear,50,2012-11-13 00:53:00
8:53 PM,-9999,-9999,N/A,30.13,10.0,NE,9.2,-,N/A,,Clear,40,2012-11-13 01:53:00
9:53 PM,-9999,-9999,N/A,30.12,10.0,NE,8.1,-,N/A,,Clear,50,2012-11-13 02:53:00
10:53 PM,-9999,-9999,N/A,30.11,10.0,NE,6.9,-,N/A,,Clear,40,2012-11-13 03:53:00
11:53 PM,-9999,-9999,N/A,30.11,10.0,NE,8.1,-,N/A,,Partly Cloudy,40,2012-11-13 04:53:00